This demonstration page uses our WeatherBlox Daily Observations layout. Learn more.

41.55636, -103.73856

Hourly Observations for May 26, 2018

Temp ( °F °C ) Dew Point ( °F °C ) Humidity (%) Winds ( mph kmh ) Pressure ( in mb ) Visibility ( mi km ) Precip ( " mm )
12:53 am 00:53 Clear 61 16.1 54 12.2 78 78 E 5 7 29.77 1008 10 16.09344 0 0
1:53 am 01:53 Clear 59 15 55 12.8 87 87 E 6 9 29.77 1008 10 16.09344 0 0
2:53 am 02:53 Clear 58 14.4 54 12.2 87 87 E 7 11 29.74 1007 10 16.09344 0 0
3:53 am 03:53 Clear 59 15 53 11.7 81 81 E 6 9 29.74 1007 10 16.09344 0 0
4:53 am 04:53 Clear 58 14.4 53 11.7 84 84 E 9 15 29.74 1007 10 16.09344 0 0
5:53 am 05:53 Sunny 59 15 53 11.7 81 81 SE 8 13 29.74 1007 10 16.09344 0 0
6:53 am 06:53 Sunny 61 16.1 55 12.8 81 81 ESE 6 9 29.74 1007 10 16.09344 0 0
7:53 am 07:53 Sunny 68 20 57 13.9 68 68 SE 12 19 29.74 1007 10 16.09344 0 0
8:53 am 08:53 Sunny 74 23.3 58 14.4 57 57 SE 8 13 29.74 1007 10 16.09344 0 0
9:53 am 09:53 Sunny 77 25 59 15 54 54 SSE 6 9 29.71 1006 10 16.09344 0 0
10:53 am 10:53 Sunny 81 27.2 62 16.7 53 53 N 5 7 29.71 1006 10 16.09344 0 0
11:53 am 11:53 Sunny 86 30 63 17.2 46 46 Calm 29.68 1005 10 16.09344 0 0
12:53 pm 12:53 Sunny 91 32.8 57 13.9 32 32 SSE 9 15 29.65 1004 10 16.09344 0 0
1:53 pm 13:53 Sunny 92 33.3 58 14.4 32 32 SE 12 19 29.62 1003 10 16.09344 0 0
2:53 pm 14:53 Sunny 92 33.3 49 9.4 23 23 SE 16 26 29.62 1003 10 16.09344 0 0
3:53 pm 15:53 Sunny 92 33.3 47 8.3 21 21 SE 8 13 29.59 1002 10 16.09344 0 0
4:53 pm 16:53 Sunny 92 33.3 56 13.3 30 30 SSE 8 13 29.56 1001 10 16.09344 0 0
5:53 pm 17:53 Sunny 88 31.1 59 15 38 38 SE 9 15 29.56 1001 10 16.09344 0 0
6:53 pm 18:53 Sunny 85 29.4 60 15.6 43 43 SE 6 9 29.56 1001 10 16.09344 0 0
7:53 pm 19:53 Sunny 82 27.8 52 11.1 35 35 SE 10 17 29.56 1001 10 16.09344 0 0
8:53 pm 20:53 Clear 79 26.1 50 10 36 36 ESE 10 17 29.56 1001 10 16.09344 0 0
9:53 pm 21:53 Clear 78 25.6 49 9.4 36 36 ESE 15 24 29.56 1001 10 16.09344 0 0
10:53 pm 22:53 Clear 77 25 48 8.9 36 36 ESE 16 26 29.56 1001 10 16.09344 0 0
11:53 pm 23:53 Clear 75 23.9 47 8.3 37 37 E 16 26 29.56 1001 10 16.09344 0 0

Powered by AerisWeather